Regional Weather Roundup
Issued by NWS

Home | Current Version | Previous Version | Text Only | Print | Product List | Glossary Off
Versions: 1 2 3 4 5 6 7 8 9 10 11 12 13 14 15 16 17 18 19 20 21 22 23 24 25 26 27 28

000
ASUS45 KCYS 232210
RWRWY

WYOMING REGIONAL WEATHER ROUNDUP
NATIONAL WEATHER SERVICE CHEYENNE WY
400 PM MDT SUN APR 23 2017

NOTE:  "FAIR" INDICATES FEW OR NO CLOUDS BELOW 12,000 FEET
WITH NO SIGNIFICANT WEATHER AND/OR OBSTRUCTIONS TO VISIBILITY.

WYZ001-232300-
YELLOWSTONE NATIONAL PARK

CITY           SKY/WX    TMP DP  RH WIND       PRES   REMARKS
LK YELLOWSTONE   N/A     42  29  59 VRB7      29.85F
W YELLOWSTONE  NOT AVBL

$$
WYZ002>013-054>058-071-098>099-232300-
NORTHERN WYOMING

CITY           SKY/WX    TMP DP  RH WIND       PRES   REMARKS
JACKSON        CLOUDY    48  34  57 SW13      29.85R
CODY           PTSUNNY   61  38  42 CALM      29.68F
GREYBULL       FAIR      71  30  21 VRB7      29.61F
WORLAND        FAIR      68  34  28 S6        29.62F
SHERIDAN       FAIR      69  38  32 E9        29.61F
BUFFALO        FAIR      70  23  17 VRB6      29.64F
GILLETTE       FAIR      67  38  34 S9        29.65F
HULETT         FAIR      64  45  48 E14       29.69F
NEWCASTLE      FAIR      70  27  19 SE6       29.69F

$$
WYZ014>020-022>026-101>103-232300-
CENTRAL WYOMING

CITY           SKY/WX    TMP DP  RH WIND       PRES   REMARKS
BIG PINEY      PTSUNNY   54  30  40 N24G31    29.82F
PINEDALE       MOCLDY    52  27  37 NW24G32   29.83R
DUBOIS         CLOUDY    45  32  61 W20G26    29.81F
LANDER         FAIR      65  34  31 SW15G24   29.69F
RIVERTON       CLOUDY    64  29  26 W8        29.68F
CASPER         PTSUNNY   69  27  20 W14G22    29.68F
DOUGLAS        FAIR      73  26  17 SW9       29.68F

$$
WYZ021-027>030-104>119-232300-
SOUTHERN WYOMING

CITY           SKY/WX    TMP DP  RH WIND       PRES   REMARKS
EVANSTON       FAIR      56  29  35 W20       29.85S
KEMMERER         N/A     54  27  35 W25G35    29.84S
FORT BRIDGER   FAIR      62  28  27 W23G38    29.86S
ROCK SPRINGS   CLOUDY    63  21  20 SW10      29.77F
DIXON            N/A     67  21  17 SW22G32   29.83F
RAWLINS        FAIR      65  18  16 SW26G41   29.78F
SARATOGA       FAIR      68  21  17 SW20G35   29.83F
LARAMIE        FAIR      64  18  17 W17G23    29.82F
CHEYENNE       FAIR      66  29  24 S17       29.79F
TORRINGTON     FAIR      75  25  15 SE15G22   29.69F
PINE BLUFFS    FAIR      64  30  27 S14G21    29.78F

$$




USA.gov is the U.S. government's official web portal to all federal, state and local government web resources and services.